SP5AP-3 Weather Reports


Display with metric or nautical units.
time (UTC)temp
F
wind
direction
speed
MPH
gust
MPH
rain 1hr
in
rain 24hr
in
rain mn
in
humidity
%
barometer
mb
20260506044030 53 0 0.0 0.0 0.00 0.00 0.00 9 1004.6
20260506043530 53 0 0.0 0.0 0.00 0.00 0.00 9 1004.7
20260506043030 53 232 0.0 1.0 0.00 0.00 0.00 9 1004.7
20260506042529 53 0 0.0 0.0 0.00 0.00 0.00 9 1004.9
20260506042029 53 0 0.0 0.0 0.00 0.00 0.00 9 1005.0
20260506041529 52 0 0.0 0.0 0.00 0.00 0.00 9 1005.1
20260506041028 52 0 0.0 0.0 0.00 0.00 0.00 9 1004.9
20260506040528 52 0 0.0 0.0 0.00 0.00 0.00 9 1005.0
20260506040028 52 0 0.0 0.0 0.00 0.00 0.00 9 1005.2
20260506035527 52 0 0.0 0.0 0.00 0.00 0.00 9 1005.0
20260506035027 52 0 0.0 0.0 0.00 0.00 0.00 9 1005.1
20260506034527 52 0 0.0 0.0 0.00 0.00 0.00 9 1005.1
20260506034026 52 0 0.0 0.0 0.00 0.00 0.00 9 1005.2
20260506033526 52 0 0.0 0.0 0.00 0.00 0.00 9 1005.3
20260506033026 52 224 1.0 2.0 0.00 0.00 0.00 8 1004.9
20260506032525 52 45 0.0 1.0 0.00 0.00 0.00 8 1005.1
20260506032025 52 0 0.0 0.0 0.00 0.00 0.00 8 1005.4
20260506031525 52 0 0.0 0.0 0.00 0.00 0.00 8 1005.4
20260506031024 51 0 0.0 0.0 0.00 0.00 0.00 8 1005.3
20260506030524 51 0 0.0 0.0 0.00 0.00 0.00 8 1005.4
20260506030024 52 0 0.0 0.0 0.00 0.00 0.00 8 1005.3
20260506025523 52 0 0.0 0.0 0.00 0.00 0.00 8 1005.2
20260506025023 51 0 0.0 0.0 0.00 0.00 0.00 8 1005.4
20260506024523 51 0 0.0 0.0 0.00 0.00 0.00 8 1005.3
20260506024022 52 5 0.0 1.0 0.00 0.00 0.00 8 1005.5
20260506023522 52 0 0.0 0.0 0.00 0.00 0.00 8 1005.4
20260506023022 52 0 0.0 0.0 0.00 0.00 0.00 8 1005.5
20260506022521 52 0 0.0 0.0 0.00 0.00 0.00 8 1005.4
20260506022021 52 53 0.0 1.0 0.00 0.00 0.00 8 1005.8
20260506021521 52 0 0.0 0.0 0.00 0.00 0.00 8 1005.8
20260506021020 52 0 0.0 0.0 0.00 0.00 0.00 8 1005.5
20260506020520 52 0 0.0 0.0 0.00 0.00 0.00 8 1005.6
20260506020020 52 0 0.0 0.0 0.00 0.00 0.00 8 1005.5
20260506015519 52 0 0.0 0.0 0.00 0.00 0.00 8 1005.5
20260506015019 52 0 0.0 0.0 0.00 0.00 0.00 8 1005.6
20260506014519 52 0 0.0 0.0 0.00 0.00 0.00 8 1005.6
20260506014018 52 0 0.0 0.0 0.00 0.00 0.00 8 1005.8
20260506013518 52 0 0.0 0.0 0.00 0.00 0.00 8 1005.4
20260506013018 52 0 0.0 0.0 0.00 0.00 0.00 8 1005.8
20260506012517 53 0 0.0 0.0 0.00 0.00 0.00 8 1005.9
20260506012017 53 0 0.0 0.0 0.00 0.00 0.00 8 1005.5
20260506011517 53 134 0.0 1.0 0.00 0.00 0.00 8 1005.6
20260506011016 53 0 0.0 0.0 0.00 0.00 0.00 8 1005.8
20260506010516 53 0 0.0 0.0 0.00 0.00 0.00 8 1005.8
20260506010016 54 0 0.0 0.0 0.00 0.00 0.00 8 1005.7
20260506005515 54 0 0.0 0.0 0.00 0.00 0.00 8 1005.4
20260506005015 54 0 0.0 0.0 0.00 0.00 0.00 8 1005.4
20260506004515 54 0 0.0 0.0 0.00 0.00 0.00 8 1005.4
20260506004014 54 0 0.0 0.0 0.00 0.00 0.00 8 1005.4
20260506003514 54 359 0.0 1.0 0.00 0.00 0.00 8 1005.4
20260506003014 54 334 0.0 1.0 0.00 0.00 0.00 8 1005.4
20260506002513 55 48 2.0 3.0 0.00 0.00 0.00 8 1005.5
20260506002013 55 0 0.0 0.0 0.00 0.00 0.00 8 1005.5
20260506001512 55 0 0.0 0.0 0.00 0.00 0.00 8 1005.6
20260506001012 55 0 0.0 0.0 0.00 0.00 0.00 8 1005.4
20260506000512 56 289 0.0 1.0 0.00 0.00 0.00 8 1005.5
20260506000011 56 11 0.0 1.0 0.00 0.00 0.00 8 1005.2
20260505235511 56 0 0.0 0.0 0.00 0.00 0.00 8 1005.0
20260505235011 56 0 0.0 0.0 0.00 0.00 0.00 8 1005.3
20260505234510 56 0 0.0 0.0 0.00 0.00 0.00 8 1005.5
20260505234010 57 0 0.0 0.0 0.00 0.00 0.00 8 1005.4
20260505233510 57 0 0.0 0.0 0.00 0.00 0.00 8 1005.2
20260505233010 57 0 0.0 0.0 0.00 0.00 0.00 8 1005.2
20260505232509 58 35 1.0 1.0 0.00 0.00 0.00 8 1005.3
20260505232009 58 0 0.0 0.0 0.00 0.00 0.00 8 1005.4
20260505231509 58 0 0.0 0.0 0.00 0.00 0.00 8 1005.4
20260505231008 58 0 0.0 0.0 0.00 0.00 0.00 8 1005.2
20260505230508 59 0 0.0 0.0 0.00 0.00 0.00 8 1005.3
20260505230008 59 0 0.0 0.0 0.00 0.00 0.00 8 1005.2
20260505225507 59 355 0.0 1.0 0.00 0.00 0.00 8 1005.1
20260505225007 59 0 0.0 0.0 0.00 0.00 0.00 8 1005.1
20260505224506 59 0 0.0 0.0 0.00 0.00 0.00 8 1005.2
20260505224006 59 0 0.0 0.0 0.00 0.00 0.00 8 1005.2
20260505223506 59 41 0.0 1.0 0.00 0.00 0.00 8 1005.2
20260505223005 60 0 0.0 0.0 0.00 0.00 0.00 8 1005.3
20260505222505 60 0 0.0 0.0 0.00 0.00 0.00 8 1005.3
20260505222005 60 0 0.0 0.0 0.00 0.00 0.00 7 1005.3
20260505221504 60 0 0.0 0.0 0.00 0.00 0.00 7 1005.4
20260505221004 61 0 0.0 0.0 0.00 0.00 0.00 7 1005.3
20260505220504 61 0 0.0 0.0 0.00 0.00 0.00 7 1005.3
20260505220004 61 50 1.0 2.0 0.00 0.00 0.00 7 1005.2
20260505215503 62 0 0.0 0.0 0.00 0.00 0.00 7 1005.5
20260505215003 62 0 0.0 0.0 0.00 0.00 0.00 7 1005.2
20260505214502 62 1 0.0 1.0 0.00 0.00 0.00 7 1005.2
20260505214002 62 17 0.0 1.0 0.00 0.00 0.00 7 1005.1
20260505213502 63 0 0.0 0.0 0.00 0.00 0.00 7 1005.2
20260505213001 63 0 0.0 0.0 0.00 0.00 0.00 7 1005.2
20260505212501 63 3 1.0 2.0 0.00 0.00 0.00 7 1005.3
20260505212001 63 0 0.0 0.0 0.00 0.00 0.00 7 1004.9
20260505211500 63 0 0.0 0.0 0.00 0.00 0.00 7 1005.2
20260505211000 64 71 0.0 1.0 0.00 0.00 0.00 7 1005.1
20260505210500 64 0 0.0 0.0 0.00 0.00 0.00 7 1005.0
20260505205959 64 312 0.0 1.0 0.00 0.00 0.00 7 1005.2
20260505205459 64 66 0.0 2.0 0.00 0.00 0.00 7 1004.6
20260505204959 65 54 0.0 3.0 0.00 0.00 0.00 7 1004.9
20260505204459 65 0 0.0 0.0 0.00 0.00 0.00 7 1004.9
20260505203958 65 0 0.0 0.0 0.00 0.00 0.00 7 1005.0
20260505203458 65 0 0.0 0.0 0.00 0.00 0.00 7 1004.9
20260505202958 66 33 0.0 1.0 0.00 0.00 0.00 6 1005.0
20260505202457 66 0 0.0 0.0 0.00 0.00 0.00 6 1005.0
20260505201957 66 333 0.0 1.0 0.00 0.00 0.00 6 1004.8
20260505201456 66 25 0.0 1.0 0.00 0.00 0.00 6 1004.9
20260505200956 67 0 0.0 0.0 0.00 0.00 0.00 6 1004.6
20260505200456 67 27 1.0 2.0 0.00 0.00 0.00 6 1004.5
20260505195956 68 38 0.0 1.0 0.00 0.00 0.00 5 1004.8
20260505195455 68 354 0.0 1.0 0.00 0.00 0.00 5 1004.3
20260505194955 69 229 2.0 2.0 0.00 0.00 0.00 4 1004.4
20260505194455 69 336 0.0 1.0 0.00 0.00 0.00 4 1004.1
20260505193954 68 229 1.0 2.0 0.00 0.00 0.00 3 1004.1
20260505193454 68 0 0.0 1.0 0.00 0.00 0.00 3 1004.4
20260505192954 68 0 0.0 0.0 0.00 0.00 0.00 3 1003.9
20260505192453 68 0 0.0 0.0 0.00 0.00 0.00 3 1004.0
20260505191953 69 0 0.0 0.0 0.00 0.00 0.00 3 1004.0
20260505191453 69 0 0.0 0.0 0.00 0.00 0.00 3 1004.1
20260505190952 69 0 0.0 0.0 0.00 0.00 0.00 3 1003.9
20260505190452 70 0 0.0 0.0 0.00 0.00 0.00 3 1004.0
20260505185951 70 0 0.0 0.0 0.00 0.00 0.00 3 1004.0
20260505185451 70 0 0.0 0.0 0.00 0.00 0.00 3 1003.9
20260505184951 71 0 0.0 0.0 0.00 0.00 0.00 3 1004.0
20260505184451 71 0 0.0 0.0 0.00 0.00 0.00 3 1004.1
20260505183950 72 0 0.0 0.0 0.00 0.00 0.00 3 1003.9
20260505183450 72 0 0.0 0.0 0.00 0.00 0.00 3 1003.9
20260505182950 72 0 0.0 0.0 0.00 0.00 0.00 3 1003.8
20260505182449 72 0 0.0 0.0 0.00 0.00 0.00 3 1003.8
20260505181949 72 0 0.0 0.0 0.00 0.00 0.00 3 1003.8
20260505181448 72 0 0.0 0.0 0.00 0.00 0.00 3 1003.7
20260505180948 72 0 0.0 0.0 0.00 0.00 0.00 3 1003.7
20260505180448 72 0 0.0 0.0 0.00 0.00 0.00 3 1003.8
20260505175947 73 0 0.0 0.0 0.00 0.00 0.00 3 1004.0
20260505175447 73 0 0.0 0.0 0.00 0.00 0.00 3 1003.9
20260505174947 73 0 0.0 0.0 0.00 0.00 0.00 3 1003.9
20260505174446 74 0 0.0 0.0 0.00 0.00 0.00 3 1003.6
20260505173946 74 0 0.0 0.0 0.00 0.00 0.00 3 1003.7
20260505173446 74 0 0.0 0.0 0.00 0.00 0.00 3 1003.7
20260505172946 75 0 0.0 0.0 0.00 0.00 0.00 2 1003.8
20260505172445 75 0 0.0 0.0 0.00 0.00 0.00 3 1004.0
20260505171945 75 0 0.0 0.0 0.00 0.00 0.00 2 1003.9
20260505171444 75 0 0.0 0.0 0.00 0.00 0.00 2 1003.8
20260505170944 75 0 0.0 0.0 0.00 0.00 0.00 2 1003.9
20260505170444 75 0 0.0 0.0 0.00 0.00 0.00 2 1003.9
20260505165943 76 0 0.0 0.0 0.00 0.00 0.00 2 1004.0
20260505165443 76 0 0.0 0.0 0.00 0.00 0.00 2 1003.8
20260505164943 76 0 0.0 0.0 0.00 0.00 0.00 2 1004.0
20260505164442 76 123 0.0 1.0 0.00 0.00 0.00 2 1003.9
20260505163942 77 290 0.0 1.0 0.00 0.00 0.00 2 1004.2
20260505163442 77 327 1.0 2.0 0.00 0.00 0.00 2 1004.1
20260505162941 77 0 0.0 0.0 0.00 0.00 0.00 2 1003.9
20260505162441 77 0 0.0 0.0 0.00 0.00 0.00 2 1004.0
20260505161941 77 27 0.0 1.0 0.00 0.00 0.00 2 1004.0
20260505161440 77 265 1.0 1.0 0.00 0.00 0.00 2 1004.0
20260505160940 77 311 0.0 1.0 0.00 0.00 0.00 2 1004.1
20260505160440 78 20 0.0 1.0 0.00 0.00 0.00 2 1004.0
20260505152937 79 234 2.0 2.0 0.00 0.00 0.00 2 1004.4
20260505152437 79 4 0.0 1.0 0.00 0.00 0.00 2 1004.1
20260505151937 80 186 2.0 3.0 0.00 0.00 0.00 2 1004.2
20260505151436 80 0 0.0 0.0 0.00 0.00 0.00 2 1004.3
20260505150936 80 343 0.0 1.0 0.00 0.00 0.00 2 1004.1
20260505150436 80 215 2.0 4.0 0.00 0.00 0.00 2 1004.2
20260505140432 79 315 1.0 1.0 0.00 0.00 0.00 2 1004.8
20260505124927 81 0 0.0 0.0 0.00 0.00 0.00 2 1005.4
20260505124427 81 0 0.0 0.0 0.00 0.00 0.00 2 1005.6
20260505123926 80 297 0.0 1.0 0.00 0.00 0.00 2 1005.6
20260505123426 81 0 0.0 0.0 0.00 0.00 0.00 2 1005.6
20260505122926 80 0 0.0 0.0 0.00 0.00 0.00 2 1005.9
20260505122425 81 0 0.0 1.0 0.00 0.00 0.00 3 1005.9
20260505121925 81 243 1.0 2.0 0.00 0.00 0.00 2 1005.8
20260505121425 82 35 1.0 2.0 0.00 0.00 0.00 2 1006.1
20260505120923 81 0 0.0 0.0 0.00 0.00 0.00 3 1006.1
20260505120423 80 24 0.0 1.0 0.00 0.00 0.00 3 1006.2
20260505115923 80 196 1.0 2.0 0.00 0.00 0.00 3 1006.1
20260505115422 80 228 2.0 2.0 0.00 0.00 0.00 3 1006.1
20260505114922 80 63 1.0 1.0 0.00 0.00 0.00 3 1006.0
20260505114422 80 1 0.0 1.0 0.00 0.00 0.00 3 1006.3
20260505113921 80 56 0.0 1.0 0.00 0.00 0.00 3 1006.0
20260505113421 80 0 0.0 0.0 0.00 0.00 0.00 3 1006.1
20260505112921 80 6 0.0 1.0 0.00 0.00 0.00 3 1006.0
20260505112420 79 97 1.0 1.0 0.00 0.00 0.00 3 1006.3
20260505111920 80 347 0.0 1.0 0.00 0.00 0.00 3 1006.3
20260505111420 79 308 2.0 4.0 0.00 0.00 0.00 3 1006.4
20260505110919 79 12 0.0 1.0 0.00 0.00 0.00 3 1006.4
20260505110419 80 336 0.0 1.0 0.00 0.00 0.00 3 1006.4
20260505101916 78 82 0.0 1.0 0.00 0.00 0.00 4 1007.1
20260505101416 79 46 1.0 2.0 0.00 0.00 0.00 3 1007.4
20260505100915 78 11 0.0 1.0 0.00 0.00 0.00 4 1007.3
20260505100415 77 316 0.0 1.0 0.00 0.00 0.00 4 1007.2
20260505095915 76 0 0.0 0.0 0.00 0.00 0.00 4 1007.3
20260505095414 76 239 1.0 2.0 0.00 0.00 0.00 4 1007.4
20260505094914 78 0 0.0 0.0 0.00 0.00 0.00 4 1007.5
20260505094414 77 14 0.0 1.0 0.00 0.00 0.00 4 1007.6
20260505093913 77 256 1.0 2.0 0.00 0.00 0.00 4 1007.8
20260505093413 76 339 0.0 1.0 0.00 0.00 0.00 4 1007.8
20260505092913 76 35 0.0 1.0 0.00 0.00 0.00 4 1007.7
20260505092412 77 0 0.0 0.0 0.00 0.00 0.00 4 1008.0
20260505091912 76 0 0.0 0.0 0.00 0.00 0.00 4 1007.9
20260505091412 76 303 0.0 1.0 0.00 0.00 0.00 4 1008.1
20260505090911 76 358 0.0 1.0 0.00 0.00 0.00 4 1008.0
20260505090411 75 0 0.0 0.0 0.00 0.00 0.00 4 1008.1
20260505085911 75 27 0.0 1.0 0.00 0.00 0.00 4 1008.2
20260505085410 75 187 1.0 1.0 0.00 0.00 0.00 4 1008.2
20260505084910 75 153 1.0 2.0 0.00 0.00 0.00 4 1007.9
20260505084410 75 48 1.0 2.0 0.00 0.00 0.00 4 1008.3
20260505083909 74 321 1.0 1.0 0.00 0.00 0.00 4 1008.2
20260505083409 75 0 0.0 0.0 0.00 0.00 0.00 4 1008.3
20260505082909 75 27 0.0 1.0 0.00 0.00 0.00 4 1008.3
20260505082408 75 8 0.0 1.0 0.00 0.00 0.00 4 1008.4
20260505081908 74 0 0.0 0.0 0.00 0.00 0.00 4 1008.4
20260505081408 73 237 0.0 1.0 0.00 0.00 0.00 4 1008.4
20260505080907 74 18 0.0 1.0 0.00 0.00 0.00 4 1008.4
20260505080407 73 22 1.0 2.0 0.00 0.00 0.00 4 1008.2
20260505075907 73 347 0.0 1.0 0.00 0.00 0.00 5 1008.4
20260505075406 72 32 0.0 1.0 0.00 0.00 0.00 5 1008.5
20260505074906 72 0 0.0 0.0 0.00 0.00 0.00 5 1008.4
20260505074406 72 98 1.0 1.0 0.00 0.00 0.00 5 1008.5
20260505073905 72 0 0.0 0.0 0.00 0.00 0.00 5 1008.7
20260505073405 71 0 0.0 0.0 0.00 0.00 0.00 5 1008.6
20260505072905 70 229 0.0 1.0 0.00 0.00 0.00 5 1008.6
20260505072404 70 3 0.0 1.0 0.00 0.00 0.00 5 1008.7
20260505071904 70 165 0.0 1.0 0.00 0.00 0.00 5 1008.8
20260505071404 70 0 0.0 0.0 0.00 0.00 0.00 5 1008.7
20260505070903 69 0 0.0 0.0 0.00 0.00 0.00 5 1008.9
20260505070403 69 77 0.0 1.0 0.00 0.00 0.00 5 1008.9
20260505065903 69 4 0.0 1.0 0.00 0.00 0.00 5 1008.8
20260505065402 69 315 1.0 1.0 0.00 0.00 0.00 5 1009.0
20260505064902 68 325 0.0 1.0 0.00 0.00 0.00 6 1009.1
20260505064402 67 175 0.0 1.0 0.00 0.00 0.00 6 1008.8
20260505063901 67 56 0.0 1.0 0.00 0.00 0.00 6 1009.2
20260505063401 66 1 0.0 1.0 0.00 0.00 0.00 6 1009.0
20260505062901 66 223 1.0 1.0 0.00 0.00 0.00 6 1008.9
20260505062400 65 194 0.0 1.0 0.00 0.00 0.00 6 1009.1
20260505061900 66 233 0.0 1.0 0.00 0.00 0.00 6 1009.0
20260505061400 64 209 0.0 1.0 0.00 0.00 0.00 6 1009.2
20260505060859 65 247 1.0 2.0 0.00 0.00 0.00 6 1009.2
20260505060359 64 36 0.0 1.0 0.00 0.00 0.00 6 1009.3
20260505055859 64 247 0.0 1.0 0.00 0.00 0.00 6 1009.3
20260505055358 63 0 0.0 0.0 0.00 0.00 0.00 6 1009.3
20260505054858 63 225 1.0 2.0 0.00 0.00 0.00 6 1009.1
20260505054358 63 21 0.0 1.0 0.00 0.00 0.00 6 1009.4
20260505053857 61 0 0.0 0.0 0.00 0.00 0.00 7 1009.4
20260505053357 61 0 0.0 0.0 0.00 0.00 0.00 7 1009.6
20260505052857 60 0 0.0 0.0 0.00 0.00 0.00 7 1009.4
20260505052356 59 5 0.0 1.0 0.00 0.00 0.00 7 1009.6
20260505051856 59 43 0.0 1.0 0.00 0.00 0.00 7 1009.4
20260505051356 59 0 0.0 0.0 0.00 0.00 0.00 7 1009.3
20260505050855 58 0 0.0 0.0 0.00 0.00 0.00 7 1009.7
20260505050355 58 0 0.0 0.0 0.00 0.00 0.00 7 1009.6